STARLINK-33915 (63708 NORAD) Tracking and Keplerian Element Data

This shows tracking and keplerian element data for the satellite.

Feedback or suggestion? Click here.




ElementValue
Catalog63708
NameSTARLINK-33915
Epoch Orbit3700
Epoch Day354.03561187
Epoch Year2025
RAAN229.5837
Inclination53.1589
Eccentricity0.0001491
Argument of Perigee73.3856
Mean Anonmoly286.7309
Mean Motion15.30183757
Decay Rate-5.07E-05
L11 63708U 25087M 25354.03561187 -.00005070 00000+0 -15924-3 0 9993
L22 63708 53.1589 229.5837 0001491 73.3856 286.7309 15.30183757 37005



Live tracking and technical data element details for STARLINK-33915 (NORAD 63708). STARLINK-33915 can be tracked NOW for your location showing map with azimuth and elevation plus other details from your city location.







IsCatalogInMostPopularTable: catalog: 63708, numindb: 2
Update: records affected: 1



GetName: 63708 STARLINK-33915

Hit Count: updated at: Sun, 08 Feb 2026 16:53:58 GMT